User: anonymous   Login
Location: Caltech
(34.1382°N, 118.1253°W)
Time: 20:50:53
(UTC-07:00)
Language:

Iridium 91 - Orbit

View from above orbital plane
View from above orbital plane
View from above satellite
View from above satellite

Ground track
Ground track

The orbit data is extracted from the following two-line orbital elements,

1 27372U 02005A   16180.24329800  .00000163  00000-0  51275-4 0  9996
2 27372  86.3984  75.7845 0002117  79.4345  33.6887 14.34215167760899
Epoch (UTC): 28 June 2016 05:50:20
Eccentricity: 0.0002117
inclination: 86.3984°
perigee height: 776 km
apogee height: 779 km
right ascension of ascending node: 75.7845°
argument of perigee: 79.4345°
revolutions per day: 14.34215167
mean anomaly at epoch: 33.6887°
orbit number at epoch: 76089

The dashed part of the orbit path shows where the satellite is in the earth's shadow,  

DLR